星链-36281(STARLINK-36281)

导读

STARLINK-36281是美国于2026年1月29日发射的星链系列卫星,归属于太空探索技术公司SpaceX的星链卫星互联网项目。星链项目旨在构建全球卫星互联网星座,为全球偏远、无网络覆盖区域及传统网络覆盖薄弱地区提供高速低延迟的宽带互联网服务,该卫星入轨后将推进星链星座组网进程,完善全球网络服务覆盖能力。

Basic Information
目录编号:
67605
目录名称:
STARLINK-36281
国际标识:
2026-018S
轨道中心:
EARTH
卫星名称:
星链-36281
卫星全名:
星链-36281(STARLINK-36281)
卫星状态:
在轨 (已飞行218 天)
发射日期:
2026-01-29 UTC
国别 :
美国 (US)
星等 :
--
Orbit Information
数据来源 国际轨道数据
星历时间: 2026-09-04T02:41:11+0800
12小时前
查看轨道信息
半长轴: 6843.645km
偏心率: 0.0000376
轨道倾角: 97.287°
近地点辐角 340.150°
升交点赤经 310.414°
平近点角 19.973°
近地点: 465.25km
远地点: 465.766km
周期: 93.905分钟
每日圈数: 15.33457
Detailed Information
固有亮度:
5
最大亮度:
2.5
卫星平台:
Starlink V1.0
覆盖范围:
全球
运营商:
太空探索技术公司
运营商所在国:
美国
制造商(研发单位):
太空探索技术公司
制造商所在国:
美国
使用方式:
暂无
Satellite Introduction
Starlink 计划是 SpaceX 推出的全球卫星互联网项目,通过发射低轨道卫星,为全球尤其是偏远地区提供高速、低延迟的互联网服务。自 2019 年起,Starlink 已部署数千颗卫星,旨在缩小全球数字鸿沟,推动互联网普及。该项目还为军事、航空等行业提供通信支持,带来广泛经济效益。
2D Orbit Map
3D Orbit Map
Orbit Altitude Analysis Chart
Orbit Inclination Analysis Chart
Orbit Comprehensive Analysis Chart
View Comprehensive Chart
Conjunction Data List
Event ID Objects TCA Miss Dist (km) Collision Risk Probability Collision Risk Index (CRI) Action
CDM_260904-144606-429306-760521
2026-09-04T
14:46:28+0000
0.710 km
远距离
8.182084E-5 中风险 0.73
CDM_260903-183505-248806-760521
2026-09-03T
18:35:10+0000
2.808 km
极远距离
8.949267E-7 极低风险 0.34